Marion, KY

8:52 AM CST on February 06, 2016 (GMT -0600)
Marion-Critt Cnty AP, Marion,

Weather History for K5M9 - March, 2014

Change the Weather History Date:

Sunday, March 16, 2014

  Actual Average (KPAH) Record (KPAH)
Temperature  
Mean Temperature 42 °F 48 °F  
Max Temperature 53 °F 59 °F 82 °F (1995)
Min Temperature 30 °F 38 °F 19 °F (1988)
Degree Days  
Heating Degree Days 24 17  
Month to date heating degree days 306  
Since 1 July heating degree days 3602  
Cooling Degree Days 0 0  
Month to date cooling degree days 0  
Year to date cooling degree days 0  
Moisture  
Dew Point 32 °F    
Average Humidity 79    
Maximum Humidity 97    
Minimum Humidity 43    
Precipitation  
Precipitation 0.00 in 0.12 in 1.56 in (2000)
Month to date precipitation 1.92  
Year to date precipitation 9.51  
Snow  
Snow 0.00 in 0.00 in 2.00 in (1970)
Month to date snowfall 0.5  
Since 1 July snowfall 9.0  
Snow Depth -    
Sea Level Pressure  
Sea Level Pressure 29.88 in    
Wind  
Wind Speed 11 mph (NE)    
Max Wind Speed 24 mph    
Max Gust Speed 32 mph    
Visibility 8 miles    
Events Rain , Snow    
T = Trace of Precipitation, MM = Missing Value Source: NWS Daily Summary

Daily Weather History Graph

Daily Weather History Graph

Search for Another Location

Airport or City:

Trip Planner

Search our weather history database for the weather conditions in past years. The results will help you decide how hot, cold, wet, or windy it might be!

Date:

Astronomy

Mar. 16, 2014 Rise Set
Actual Time 7:01 AM CDT 7:00 PM CDT
Civil Twilight 6:35 AM CDT 7:26 PM CDT
Nautical Twilight 6:05 AM CDT 7:57 PM CDT
Astronomical Twilight 5:35 AM CDT 8:27 PM CDT
Moon 7:16 PM CDT (3/16) 6:45 AM CDT (3/16)
Length of Visible Light 12h 50m
Length of Day
11h 58m
Full, 100% of the Moon is Illuminated
Mar 16
Full
Mar 16
Full
Mar 23
Last Quarter
Mar 30
New
Apr 7
First Quarter

Hourly Weather History & Observations

Time (CDT) Temp. Windchill Dew Point Humidity Pressure Visibility Wind Dir Wind Speed Gust Speed Precip Events Conditions
12:15 AM 52.3 °F - 30.9 °F 44% 29.92 in 10.0 mi East 3.5 mph - N/A   Overcast
12:35 AM 51.6 °F - 31.8 °F 47% 29.93 in 10.0 mi East 4.6 mph - N/A   Overcast
12:55 AM 52.9 °F - 30.9 °F 43% 29.92 in 10.0 mi East 4.6 mph - N/A   Overcast
1:15 AM 53.1 °F - 32.4 °F 45% 29.92 in 10.0 mi East 5.8 mph - N/A   Overcast
1:35 AM 52.9 °F - 35.4 °F 52% 29.91 in 10.0 mi ESE 6.9 mph - N/A   Overcast
1:55 AM 53.6 °F - 35.6 °F 51% 29.91 in 10.0 mi ESE 5.8 mph - N/A   Overcast
2:15 AM 53.6 °F - 35.6 °F 51% 29.91 in 10.0 mi East 4.6 mph - N/A   Overcast
2:35 AM 52.0 °F - 36.0 °F 54% 29.90 in 10.0 mi ENE 4.6 mph - N/A Rain Light Rain
2:55 AM 51.8 °F - 35.2 °F 53% 29.89 in 10.0 mi NNE 6.9 mph - N/A   Overcast
3:15 AM 51.1 °F - 34.9 °F 54% 29.87 in 10.0 mi NNE 4.6 mph - N/A   Overcast
3:35 AM 50.5 °F - 34.7 °F 55% 29.86 in 10.0 mi NE 8.1 mph - N/A   Overcast
3:55 AM 50.9 °F - 34.2 °F 53% 29.85 in 10.0 mi NE 9.2 mph - N/A   Overcast
4:15 AM 50.5 °F - 33.8 °F 53% 29.84 in 10.0 mi NE 8.1 mph - N/A   Overcast
4:35 AM 49.8 °F - 33.6 °F 54% 29.84 in 10.0 mi NE 9.2 mph - N/A   Overcast
4:55 AM 49.6 °F - 32.4 °F 51% 29.84 in 10.0 mi NE 11.5 mph - N/A   Overcast
5:15 AM 49.3 °F - 32.2 °F 52% 29.83 in 10.0 mi ENE 15.0 mph - N/A   Overcast
5:35 AM 49.1 °F - 32.2 °F 52% 29.83 in 10.0 mi ENE 13.8 mph 19.6 mph N/A   Overcast
5:55 AM 48.2 °F - 32.9 °F 55% 29.83 in 10.0 mi ENE 15.0 mph 20.7 mph N/A Rain Light Rain
6:15 AM 46.8 °F - 34.2 °F 62% 29.82 in 10.0 mi ENE 15.0 mph - N/A   Light Drizzle
6:35 AM 46.4 °F 40.4 °F 34.2 °F 62% 29.83 in 10.0 mi ENE 13.8 mph - N/A   Light Drizzle
6:55 AM 45.7 °F 39.1 °F 33.3 °F 62% 29.83 in 10.0 mi ENE 15.0 mph 19.6 mph N/A Rain Light Rain
7:15 AM 43.9 °F 37.5 °F 35.4 °F 72% 29.83 in 10.0 mi ENE 12.7 mph - N/A Rain Light Rain
7:35 AM 43.0 °F 35.7 °F 35.8 °F 76% 29.84 in 10.0 mi ENE 15.0 mph - N/A Rain Light Rain
7:55 AM 41.9 °F 34.0 °F 36.3 °F 81% 29.85 in 10.0 mi ENE 16.1 mph 20.7 mph N/A Rain Light Rain
8:15 AM 41.2 °F 33.4 °F 36.3 °F 83% 29.85 in 10.0 mi ENE 15.0 mph 20.7 mph N/A Rain Light Rain
8:35 AM 41.0 °F 32.8 °F 36.1 °F 83% 29.85 in 10.0 mi ENE 16.1 mph 24.2 mph N/A Rain Rain
8:55 AM 40.6 °F 32.3 °F 36.1 °F 84% 29.86 in 10.0 mi NE 16.1 mph 20.7 mph N/A Rain Light Rain
9:15 AM 40.5 °F 31.5 °F 36.1 °F 85% 29.86 in 10.0 mi NE 18.4 mph 24.2 mph N/A Rain Light Rain
9:35 AM 40.1 °F 31.3 °F 37.0 °F 89% 29.86 in 7.0 mi NE 17.3 mph 21.9 mph N/A Rain Light Rain
9:55 AM 39.6 °F 30.3 °F 37.0 °F 91% 29.87 in 7.0 mi NE 18.4 mph 24.2 mph N/A Rain Light Rain
10:15 AM 38.5 °F 28.6 °F 36.5 °F 93% 29.88 in 5.0 mi NE 19.6 mph 26.5 mph N/A Rain Light Rain
10:35 AM 37.6 °F 27.7 °F 35.6 °F 93% 29.87 in 4.0 mi NE 18.4 mph 32.2 mph N/A Rain Light Rain
10:55 AM 36.9 °F 26.5 °F 35.1 °F 93% 29.87 in 5.0 mi NE 19.6 mph 29.9 mph N/A Rain Light Rain
11:15 AM 36.0 °F 24.7 °F 33.3 °F 90% 29.87 in 7.0 mi NE 21.9 mph 27.6 mph N/A Rain Light Rain
11:35 AM 35.8 °F 25.4 °F 33.3 °F 91% 29.88 in 5.0 mi NE 18.4 mph 31.1 mph N/A Rain Light Rain
11:55 AM 35.1 °F 23.0 °F 32.9 °F 92% 29.88 in 5.0 mi NE 24.2 mph 29.9 mph N/A Rain Light Rain
12:15 PM 34.3 °F 22.6 °F 32.7 °F 94% 29.87 in 4.0 mi NE 21.9 mph 28.8 mph N/A Rain Rain
12:35 PM 34.2 °F 22.3 °F 32.4 °F 93% 29.86 in 4.0 mi NE 21.9 mph 28.8 mph N/A Rain Light Rain
12:55 PM 33.8 °F 22.2 °F 32.0 °F 93% 29.86 in 4.0 mi NNE 20.7 mph 32.2 mph N/A Rain Light Rain
1:15 PM 33.1 °F 22.2 °F 32.0 °F 96% 29.86 in 3.0 mi NNE 17.3 mph 28.8 mph N/A Rain Rain
1:35 PM 32.9 °F 22.4 °F 31.8 °F 96% 29.87 in 3.0 mi NNE 16.1 mph 29.9 mph N/A Rain Rain
1:55 PM 32.5 °F 21.2 °F 31.6 °F 96% 29.86 in 3.0 mi NE 18.4 mph 26.5 mph N/A Rain Light Rain
2:15 PM 32.2 °F 20.4 °F 31.5 °F 97% 29.84 in 1.5 mi NE 19.6 mph 27.6 mph N/A Snow Light Snow
2:35 PM 32.0 °F 20.8 °F 31.3 °F 97% 29.84 in 2.0 mi NNE 17.3 mph 23.0 mph N/A Snow Light Snow
2:55 PM 32.0 °F 21.6 °F 31.1 °F 96% 29.84 in 3.0 mi NNE 15.0 mph 23.0 mph N/A Snow Light Snow
3:15 PM 32.0 °F 20.1 °F 31.1 °F 96% 29.86 in 3.0 mi NNE 19.6 mph 25.3 mph N/A Snow Light Snow
3:35 PM 32.0 °F 21.2 °F 30.9 °F 96% 29.86 in 2.5 mi NNE 16.1 mph 25.3 mph N/A Snow Light Snow
3:55 PM 32.0 °F 19.8 °F 30.9 °F 96% 29.85 in 2.5 mi NNE 20.7 mph 27.6 mph N/A Snow Light Snow
4:15 PM 32.0 °F 21.2 °F 30.7 °F 95% 29.85 in 5.0 mi NNE 16.1 mph 26.5 mph N/A   Overcast
4:35 PM 32.0 °F 22.1 °F 30.7 °F 95% 29.86 in 7.0 mi NNE 13.8 mph 19.6 mph N/A   Overcast
4:55 PM 32.0 °F 21.2 °F 30.0 °F 92% 29.86 in 7.0 mi NNE 16.1 mph 24.2 mph N/A   Overcast
5:15 PM 32.0 °F 20.8 °F 30.0 °F 92% 29.86 in 10.0 mi NNE 17.3 mph 26.5 mph N/A   Overcast
5:35 PM 31.6 °F 20.4 °F 30.2 °F 94% 29.87 in 10.0 mi NNE 17.3 mph 25.3 mph N/A   Overcast
5:55 PM 31.6 °F 21.2 °F 30.2 °F 94% 29.87 in 10.0 mi NNE 15.0 mph 23.0 mph N/A   Overcast
6:15 PM 31.5 °F 21.4 °F 30.0 °F 94% 29.88 in 10.0 mi NNE 13.8 mph 24.2 mph N/A   Overcast
6:35 PM 31.1 °F 20.1 °F 29.3 °F 93% 29.88 in 10.0 mi NNE 16.1 mph 27.6 mph N/A   Overcast
6:55 PM 31.1 °F 19.7 °F 29.1 °F 92% 29.89 in 10.0 mi NNE 17.3 mph 25.3 mph N/A   Overcast
7:15 PM 31.1 °F 19.7 °F 29.3 °F 93% 29.90 in 10.0 mi NNE 17.3 mph - N/A   Overcast
7:35 PM 31.1 °F 20.9 °F 29.3 °F 93% 29.91 in 10.0 mi NE 13.8 mph 25.3 mph N/A   Overcast
7:55 PM 31.3 °F 20.7 °F 29.3 °F 92% 29.91 in 10.0 mi NE 15.0 mph 20.7 mph N/A   Overcast
8:15 PM 31.5 °F 21.4 °F 29.3 °F 92% 29.92 in 10.0 mi NNE 13.8 mph 17.3 mph N/A   Overcast
8:35 PM 31.5 °F 21.8 °F 29.3 °F 92% 29.91 in 10.0 mi NNE 12.7 mph 19.6 mph N/A   Overcast
8:55 PM 31.5 °F 22.3 °F 29.3 °F 92% 29.91 in 10.0 mi NNE 11.5 mph - N/A   Overcast
9:15 PM 31.5 °F 23.5 °F 29.3 °F 92% 29.92 in 10.0 mi NNE 9.2 mph - N/A   Overcast
9:35 PM 31.6 °F 22.1 °F 28.6 °F 88% 29.92 in 10.0 mi NNE 12.7 mph - N/A   Overcast
9:55 PM 31.6 °F 22.6 °F 27.5 °F 85% 29.92 in 10.0 mi North 11.5 mph 17.3 mph N/A   Overcast
10:15 PM 31.5 °F 22.9 °F 26.4 °F 82% 29.92 in 10.0 mi NNE 10.4 mph - N/A   Overcast
10:35 PM 31.1 °F 21.9 °F 25.5 °F 80% 29.92 in 10.0 mi NNE 11.5 mph - N/A   Overcast
10:55 PM 30.7 °F 20.9 °F 24.3 °F 77% 29.94 in 10.0 mi North 12.7 mph 18.4 mph N/A   Overcast
11:15 PM 30.7 °F 21.4 °F 23.9 °F 76% 29.95 in 10.0 mi North 11.5 mph - N/A   Overcast
11:35 PM 30.6 °F 21.2 °F 22.8 °F 73% 29.93 in 10.0 mi NNE 11.5 mph 19.6 mph N/A   Overcast
11:55 PM 30.2 °F 21.3 °F 23.0 °F 75% 29.93 in 10.0 mi NNE 10.4 mph - N/A   Overcast